Flag for Jamaica Weather past 2 weeks in Montego Bay, Jamaica

Now
86 °F

Scattered clouds.


Feels Like: 99 °F
Forecast: 75 / 88 °F
Wind: 5 mph from North

Location: Montego Bay / Sangster

Current Time: Oct 21, 2014 at 11:15:01 AM

Latest Report: Oct 21, 2014 at 10:00 AM


Visibility: N/A

Pressure: 29.92 "Hg

Humidity: 79%

Dew point: 79 °F

Location of Montego BayLocation

Historic Weather in Montego Bay — Graph

°F

Montego Bay temperature yesterday

Maximum temperature yesterday: 86 °F (at 10:00 AM)
Minimum temperature yesterday: 72 °F (at 4:00 PM)
Average temperature yesterday: 78 °F

Past Weeks' High & Low Weather Summary

 TemperatureHumidityPressure
High90 °F (Oct 6, 1:00 PM)100% (Oct 14, 11:00 PM)29.98 "Hg (Oct 14, 11:00 PM)
Low72 °F (Oct 19, 8:00 PM)59% (Oct 11, 9:00 AM)27.25 "Hg (Oct 15, 7:00 AM)
Average82 °F82%29.89 "Hg
* Reported Oct 6 10:00 AM — Oct 21 10:00 AM, Montego Bay, Weather by CustomWeather, © 2014

Note: Actual official high and low records may vary slightly from our data, if they occured in-between our weather recording intervals... More about our weather records

Advertising

Montego Bay weather history for previous 24 hours

 ConditionsComfort  
Time TempWeatherWind HumidityBarometerVisibility
10:00 AM
Oct 21
86 °FScattered clouds.5 mph79%29.92 "HgN/A
9:00 AM82 °FPassing clouds.6 mph79%29.92 "HgN/A
8:00 AM82 °FPassing clouds.7 mph74%29.89 "HgN/A
7:00 AM79 °FPassing clouds.7 mph79%29.89 "HgN/A
6:00 AM77 °FPassing clouds.1 mph83%29.89 "HgN/A
5:00 AM73 °FPassing clouds.2 mph100%29.86 "HgN/A
4:00 AM77 °FPassing clouds.2 mph89%29.86 "HgN/A
3:00 AM77 °FPassing clouds.1 mph89%29.86 "HgN/A
2:00 AM77 °FPassing clouds.2 mph89%29.86 "HgN/A
1:00 AM75 °FPassing clouds.2 mph100%29.89 "HgN/A
12:00 AM77 °FPassing clouds.2 mph94%29.89 "HgN/A
11:00 PM
Oct 20
79 °FPassing clouds.5 mph89%29.92 "HgN/A
10:00 PM79 °FPassing clouds.6 mph89%29.92 "HgN/A
9:00 PM79 °FPassing clouds.5 mph94%29.92 "HgN/A
8:00 PM77 °FPassing clouds.5 mph100%29.89 "HgN/A
7:00 PM77 °FThundershowers. Passing clouds.2 mph94%29.89 "HgN/A
6:00 PM77 °FPassing clouds.6 mph89%29.86 "HgN/A
5:00 PM73 °FSprinkles. Broken clouds.6 mph94%29.86 "HgN/A
4:00 PM72 °FThunderstorms. Scattered clouds.5 mph94%29.86 "HgN/A
3:00 PM77 °FThunderstorms. Broken clouds.12 mph89%29.86 "Hg2 mi
2:00 PM79 °FThunderstorms. Broken clouds.10 mph84%29.89 "HgN/A
1:00 PM81 °FThunderstorms. Partly sunny.5 mph74%29.89 "HgN/A
12:00 PM86 °FPassing clouds.14 mph79%29.92 "HgN/A
11:00 AM84 °FPassing clouds.12 mph89%29.95 "HgN/A
Weather by CustomWeather, © 2014

See weather overviewHow to use our weather pages